TimeCST,TemperatureF,Dew PointF,Humidity,Sea Level PressureIn,VisibilityMPH,Wind Direction,Wind SpeedMPH,Gust SpeedMPH,PrecipitationIn,Events,Conditions,WindDirDegrees,DateUTC
12:15 AM,35.6,30.2,81,30.16,10.0,NW,9.2,-,N/A,,Clear,310,2012-11-20 06:15:00
12:35 AM,33.8,28.4,81,30.17,10.0,NW,3.5,-,N/A,,Clear,320,2012-11-20 06:35:00
12:55 AM,33.8,30.2,87,30.16,10.0,WNW,5.8,-,N/A,,Clear,300,2012-11-20 06:55:00
1:15 AM,33.8,28.4,81,30.16,10.0,WNW,6.9,-,N/A,,Clear,300,2012-11-20 07:15:00
1:35 AM,35.6,30.2,81,30.16,10.0,West,4.6,-,N/A,,Clear,270,2012-11-20 07:35:00
1:55 AM,33.8,28.4,81,30.17,10.0,WNW,6.9,-,N/A,,Clear,300,2012-11-20 07:55:00
2:15 AM,32.0,28.4,87,30.17,10.0,WNW,6.9,-,N/A,,Clear,290,2012-11-20 08:15:00
2:35 AM,33.8,28.4,81,30.18,10.0,WNW,5.8,-,N/A,,Clear,300,2012-11-20 08:35:00
2:55 AM,32.0,28.4,87,30.18,10.0,WNW,6.9,-,N/A,,Clear,300,2012-11-20 08:55:00
3:15 AM,32.0,28.4,87,30.18,10.0,WNW,5.8,-,N/A,,Clear,300,2012-11-20 09:15:00
3:35 AM,32.0,28.4,87,30.18,10.0,West,5.8,-,N/A,,Clear,280,2012-11-20 09:35:00
3:55 AM,33.8,28.4,81,30.18,10.0,West,5.8,-,N/A,,Clear,270,2012-11-20 09:55:00
4:15 AM,32.0,28.4,87,30.18,10.0,Calm,Calm,-,N/A,,Clear,0,2012-11-20 10:15:00
4:35 AM,30.2,28.4,93,30.18,10.0,Calm,Calm,-,N/A,,Clear,0,2012-11-20 10:35:00
4:55 AM,30.2,28.4,93,30.17,10.0,Calm,Calm,-,N/A,,Clear,0,2012-11-20 10:55:00
5:15 AM,28.4,26.6,93,30.18,10.0,Calm,Calm,-,N/A,,Clear,0,2012-11-20 11:15:00
5:35 AM,28.4,26.6,93,30.17,10.0,Calm,Calm,-,N/A,,Clear,0,2012-11-20 11:35:00
5:55 AM,26.6,26.6,100,30.17,10.0,Calm,Calm,-,N/A,,Clear,0,2012-11-20 11:55:00
6:15 AM,28.4,28.4,100,30.17,10.0,Calm,Calm,-,N/A,,Clear,0,2012-11-20 12:15:00
6:35 AM,26.6,21.2,80,30.17,10.0,Calm,Calm,-,N/A,,Clear,0,2012-11-20 12:35:00
6:55 AM,24.8,23.0,93,30.17,10.0,Calm,Calm,-,N/A,,Clear,0,2012-11-20 12:55:00
7:15 AM,26.6,24.8,93,30.18,9.0,Calm,Calm,-,N/A,,Clear,0,2012-11-20 13:15:00
7:35 AM,24.8,24.8,100,30.19,0.5,Calm,Calm,-,N/A,,Unknown,0,2012-11-20 13:35:00
7:55 AM,26.6,24.8,93,30.19,0.2,Calm,Calm,-,N/A,,Unknown,0,2012-11-20 13:55:00
8:15 AM,26.6,26.6,100,30.19,1.2,ENE,3.5,-,N/A,,Clear,70,2012-11-20 14:15:00
8:35 AM,28.4,28.4,100,30.19,7.0,East,3.5,-,N/A,,Clear,80,2012-11-20 14:35:00
8:55 AM,30.2,30.2,100,30.19,6.0,East,5.8,-,N/A,,Clear,100,2012-11-20 14:55:00
9:15 AM,32.0,30.2,93,30.18,8.0,East,5.8,-,N/A,,Clear,90,2012-11-20 15:15:00
9:35 AM,33.8,32.0,93,30.18,10.0,East,5.8,-,N/A,,Clear,90,2012-11-20 15:35:00
9:55 AM,37.4,33.8,87,30.18,10.0,East,4.6,-,N/A,,Clear,100,2012-11-20 15:55:00
10:15 AM,39.2,33.8,81,30.18,10.0,ESE,4.6,-,N/A,,Clear,120,2012-11-20 16:15:00
10:35 AM,41.0,33.8,76,30.18,10.0,East,5.8,-,N/A,,Clear,100,2012-11-20 16:35:00
10:55 AM,44.6,35.6,71,30.18,10.0,ESE,6.9,-,N/A,,Clear,120,2012-11-20 16:55:00
11:15 AM,46.4,35.6,66,30.17,10.0,SE,9.2,-,N/A,,Clear,130,2012-11-20 17:15:00
11:35 AM,48.2,37.4,66,30.16,10.0,ESE,8.1,-,N/A,,Clear,110,2012-11-20 17:35:00
11:55 AM,53.6,39.2,58,30.15,10.0,SSE,11.5,-,N/A,,Clear,150,2012-11-20 17:55:00
12:15 PM,55.4,37.4,51,30.13,10.0,SSE,11.5,-,N/A,,Clear,150,2012-11-20 18:15:00
12:35 PM,57.2,37.4,48,30.12,10.0,SSE,9.2,-,N/A,,Clear,160,2012-11-20 18:35:00
12:55 PM,59.0,35.6,42,30.11,10.0,SSE,11.5,-,N/A,,Clear,160,2012-11-20 18:55:00
1:15 PM,62.6,30.2,30,30.10,10.0,South,12.7,-,N/A,,Clear,180,2012-11-20 19:15:00
1:35 PM,60.8,28.4,29,30.08,10.0,SSE,12.7,-,N/A,,Clear,150,2012-11-20 19:35:00
1:55 PM,62.6,28.4,27,30.07,10.0,SSE,12.7,-,N/A,,Clear,160,2012-11-20 19:55:00
2:15 PM,62.6,30.2,30,30.06,10.0,South,12.7,-,N/A,,Clear,170,2012-11-20 20:15:00
2:35 PM,62.6,30.2,30,30.05,10.0,SSE,13.8,-,N/A,,Clear,160,2012-11-20 20:35:00
2:55 PM,64.4,33.8,32,30.05,10.0,South,15.0,-,N/A,,Clear,170,2012-11-20 20:55:00
3:15 PM,64.4,33.8,32,30.04,10.0,SSE,12.7,-,N/A,,Clear,150,2012-11-20 21:15:00
3:35 PM,64.4,32.0,30,30.03,10.0,SSE,15.0,18.4,N/A,,Clear,160,2012-11-20 21:35:00
3:55 PM,64.4,33.8,32,30.03,10.0,South,8.1,-,N/A,,Clear,170,2012-11-20 21:55:00
4:15 PM,62.6,32.0,32,30.03,10.0,SSE,12.7,-,N/A,,Clear,160,2012-11-20 22:15:00
4:35 PM,62.6,32.0,32,30.03,10.0,SSE,11.5,-,N/A,,Clear,160,2012-11-20 22:35:00
4:55 PM,59.0,32.0,36,30.03,10.0,SSE,13.8,-,N/A,,Clear,150,2012-11-20 22:55:00
5:15 PM,57.2,32.0,38,30.03,10.0,SSE,10.4,-,N/A,,Clear,150,2012-11-20 23:15:00
5:35 PM,55.4,32.0,41,30.03,10.0,SE,9.2,-,N/A,,Clear,140,2012-11-20 23:35:00
5:55 PM,53.6,32.0,44,30.03,10.0,SE,8.1,-,N/A,,Clear,130,2012-11-20 23:55:00
6:15 PM,53.6,32.0,44,30.03,10.0,SE,9.2,-,N/A,,Clear,130,2012-11-21 00:15:00
6:35 PM,53.6,33.8,47,30.03,10.0,SSE,8.1,-,N/A,,Clear,150,2012-11-21 00:35:00
6:55 PM,51.8,33.8,50,30.03,10.0,SSE,9.2,-,N/A,,Clear,150,2012-11-21 00:55:00
7:15 PM,51.8,33.8,50,30.02,10.0,SSE,6.9,-,N/A,,Clear,160,2012-11-21 01:15:00
7:35 PM,53.6,33.8,47,30.02,10.0,SSE,8.1,-,N/A,,Clear,160,2012-11-21 01:35:00
7:55 PM,53.6,33.8,47,30.02,10.0,SSE,8.1,-,N/A,,Clear,160,2012-11-21 01:55:00
8:15 PM,55.4,33.8,44,30.01,10.0,South,11.5,-,N/A,,Clear,170,2012-11-21 02:15:00
8:35 PM,55.4,33.8,44,30.01,10.0,South,13.8,19.6,N/A,,Clear,180,2012-11-21 02:35:00
8:55 PM,57.2,33.8,41,30.00,10.0,South,15.0,20.7,N/A,,Clear,190,2012-11-21 02:55:00
9:15 PM,57.2,33.8,41,30.00,10.0,South,16.1,20.7,N/A,,Clear,180,2012-11-21 03:15:00
9:35 PM,57.2,33.8,41,30.00,10.0,South,19.6,26.5,N/A,,Clear,190,2012-11-21 03:35:00
9:55 PM,57.2,33.8,41,29.99,10.0,South,16.1,25.3,N/A,,Clear,190,2012-11-21 03:55:00
10:15 PM,57.2,33.8,41,29.99,10.0,South,18.4,25.3,N/A,,Clear,190,2012-11-21 04:15:00
10:35 PM,57.2,33.8,41,29.99,10.0,SSW,16.1,27.6,N/A,,Clear,200,2012-11-21 04:35:00
10:55 PM,55.4,33.8,44,29.98,10.0,SSW,18.4,-,N/A,,Clear,200,2012-11-21 04:55:00
11:15 PM,55.4,33.8,44,29.98,10.0,SSW,21.9,-,N/A,,Clear,200,2012-11-21 05:15:00
11:35 PM,55.4,33.8,44,29.98,10.0,SSW,23.0,32.2,N/A,,Clear,200,2012-11-21 05:35:00
11:55 PM,55.4,33.8,44,29.98,10.0,SSW,19.6,31.1,N/A,,Clear,200,2012-11-21 05:55:00